This is the latest recevied weather packets stored in our database for station/object N2WH. If no packets are shown the sender has not sent any weather packets the latest 10 day(s).
| Time | Temp. | Humidity | Pressure | Rain* | Wind** | Luminosity | Snow |
|---|---|---|---|---|---|---|---|
| 1777992802 | 23.89° C | 51% | 1011.6 hPa | 0 mm | - | 723 W/m² | - |
| 1777992499 | 23.89° C | 50% | 1011.6 hPa | 0 mm | - | 768 W/m² | - |
| 1777992198 | 23.33° C | 53% | 1011.9 hPa | 0 mm | - | 704 W/m² | - |
| 1777991894 | 22.78° C | 52% | 1011.8 hPa | 0 mm | - | 727 W/m² | - |
| 1777991592 | 22.78° C | 54% | 1012.2 hPa | 0 mm | - | 716 W/m² | - |
| 1777991288 | 22.22° C | 54% | 1012.2 hPa | 0 mm | - | 684 W/m² | - |
| 1777990986 | 23.33° C | 53% | 1012.2 hPa | 0 mm | - | 176 W/m² | - |
| 1777990683 | 23.33° C | 54% | 1012.1 hPa | 0 mm | - | 663 W/m² | - |
| 1777990381 | 22.78° C | 55% | 1012 hPa | 0 mm | - | 646 W/m² | - |
| 1777990076 | 22.22° C | 53% | 1012.1 hPa | 0 mm | - | 632 W/m² | - |
| 1777989773 | 22.78° C | 54% | 1012 hPa | 0 mm | - | 597 W/m² | - |
| 1777989470 | 22.78° C | 54% | 1012.1 hPa | 0 mm | - | 571 W/m² | - |
| 1777989166 | 21.67° C | 54% | 1012 hPa | 0 mm | - | 522 W/m² | - |
| 1777988862 | 21.67° C | 55% | 1011.9 hPa | 0 mm | - | 519 W/m² | - |
| 1777988560 | 21.11° C | 58% | 1011.9 hPa | 0 mm | - | 521 W/m² | - |
| 1777988256 | 21.11° C | 57% | 1011.8 hPa | 0 mm | - | 508 W/m² | - |
| 1777987953 | 20.56° C | 58% | 1012.2 hPa | 0 mm | - | 373 W/m² | - |
| 1777987649 | 20° C | 59% | 1011.9 hPa | 0 mm | - | 134 W/m² | - |
| 1777987346 | 20° C | 60% | 1012.2 hPa | 0 mm | - | 115 W/m² | - |
| 1777987044 | 20° C | 60% | 1012 hPa | 0 mm | - | 196 W/m² | - |
| 1777986741 | 19.44° C | 62% | 1012.2 hPa | 0 mm | - | 124 W/m² | - |
| 1777986438 | 19.44° C | 64% | 1012 hPa | 0 mm | - | 82 W/m² | - |
| 1777986137 | 18.89° C | 65% | 1012 hPa | 0 mm | - | 78 W/m² | - |
| 1777985833 | 18.89° C | 65% | 1012.2 hPa | 0 mm | - | 71 W/m² | - |
| 1777985531 | 18.33° C | 65% | 1011.7 hPa | 0 mm | - | 89 W/m² | - |
* Rain latest hour (hover to see other rain measurements)
** Current wind speed in m/s (hover to see current wind gust speed)